Zurück zum Katalog

DELTA 1 DEB

AktivSSO
NORAD 9042·DEBRIS·🇺🇸 United States

Gestartet Jan 22, 1975 von Vandenberg Space Force Base

Loading…

Nächste Überflüge (nächste 24 Stunden)

TLE

AktuellSource: Space-Track

Epoche: Sep 14, 2026, 07:08 UTC

1 09042U 75004DG  26257.29785418  .00000156  00000-0  58727-4 0  9992
2 09042  97.9909 199.8332 0061689 148.8336 211.6537 14.41870564652499

Verfolge DELTA 1 DEB in Echtzeit mit AllMySat

Download on the App Store